Weather History for Roseau, MN

Change the Weather History Date:

Sunday, November 17, 2013

  Actual Average Record
Temperature  
Mean Temperature 30 °F -  
Max Temperature 37 °F 32 °F 66 °F (1953)
Min Temperature 21 °F 19 °F -11 °F (1959)
Degree Days  
Heating Degree Days 35    
Moisture  
Dew Point 25 °F    
Average Humidity 82    
Maximum Humidity 87    
Minimum Humidity 80    
Precipitation  
Precipitation 0.12 in - - ()
Sea Level Pressure  
Sea Level Pressure 29.52 in    
Wind  
Wind Speed 10 mph (NNW)    
Max Wind Speed 16 mph    
Max Gust Speed 17 mph    
Visibility 5 miles    
Events Rain , Snow    
Averages and records for this station are not official NWS values.
T = Trace of Precipitation, MM = Missing Value Source: NWS Daily Summary

Daily Weather History Graph

Daily Weather History Graph

Search for Another Location

Airport:

Trip Planner

Search our weather history database for the weather conditions in past years. The results will help you decide how hot, cold, wet, or windy it might be!

Date:

Astronomy

Nov. 17, 2013 Rise Set
Actual Time 7:35 AM CST 4:39 PM CST
Civil Twilight 7:00 AM CST 5:14 PM CST
Nautical Twilight 6:21 AM CST 5:53 PM CST
Astronomical Twilight 5:44 AM CST 6:30 PM CST
Moon 4:57 PM CST (11/17) 7:29 AM CST (11/17)
Length of Visible Light 10h 14m
Length of Day
9h 04m
Full, 100% of the Moon is Illuminated
Nov 17
Full
Nov 25
Last Quarter
Dec 2
New
Dec 9
First Quarter
Dec 17
Full

Hourly Weather History & Observations

Time (CST) Temp. Windchill Dew Point Humidity Pressure Visibility Wind Dir Wind Speed Gust Speed Precip Events Conditions
12:14 AM 37.4 °F 31.4 °F 33.8 °F 87% 29.34 in 3.0 mi NNW 8.1 mph - 0.01 in Rain Rain
12:35 AM 37.4 °F 30.8 °F 33.8 °F 87% 29.34 in 4.0 mi NNW 9.2 mph - 0.01 in Rain Light Rain
12:54 AM 37.4 °F 30.8 °F 33.8 °F 87% 29.34 in 3.0 mi North 9.2 mph - 0.02 in Rain Rain
1:14 AM 37.4 °F 32.1 °F 33.8 °F 87% 29.33 in 4.0 mi North 6.9 mph - N/A Rain Rain
1:34 AM 37.4 °F 31.4 °F 33.8 °F 87% 29.33 in 5.0 mi North 8.1 mph - N/A Rain Rain
1:54 AM 37.4 °F 30.8 °F 33.8 °F 87% 29.34 in 4.0 mi North 9.2 mph - 0.01 in Rain Rain
2:14 AM 37.4 °F 30.8 °F 32.0 °F 81% 29.34 in 5.0 mi North 9.2 mph - N/A Rain Light Rain
2:34 AM 37.4 °F 30.3 °F 32.0 °F 81% 29.34 in 5.0 mi North 10.4 mph - N/A Rain Rain
2:54 AM 35.6 °F 29.2 °F 32.0 °F 87% 29.35 in 5.0 mi North 8.1 mph - N/A Rain Rain
3:15 AM 35.6 °F 29.2 °F 30.2 °F 81% 29.35 in 5.0 mi North 8.1 mph - N/A Rain Light Rain
3:34 AM 35.6 °F 29.2 °F 30.2 °F 81% 29.34 in 4.0 mi North 8.1 mph - 0.01 in Rain Light Rain
3:54 AM 33.8 °F 27.0 °F 28.4 °F 81% 29.35 in 4.0 mi NNW 8.1 mph - 0.01 in Snow Light Snow
4:15 AM 33.8 °F 27.7 °F 28.4 °F 81% 29.35 in 4.0 mi NNW 6.9 mph - N/A Snow Light Snow
4:34 AM 33.8 °F 27.0 °F 28.4 °F 81% 29.34 in 4.0 mi North 8.1 mph - N/A Snow Light Snow
4:54 AM 33.8 °F 27.0 °F 28.4 °F 81% 29.36 in 3.0 mi North 8.1 mph - N/A Snow Light Snow
5:15 AM 33.8 °F 27.7 °F 28.4 °F 81% 29.36 in 3.0 mi North 6.9 mph - 0.01 in Snow Light Snow
5:34 AM 33.8 °F 27.7 °F 28.4 °F 81% 29.36 in 2.5 mi North 6.9 mph - 0.01 in Snow Light Snow
5:54 AM 33.8 °F 27.7 °F 28.4 °F 81% 29.37 in 2.0 mi NNW 6.9 mph - 0.01 in Snow Light Snow
6:15 AM 33.8 °F 27.7 °F 28.4 °F 81% 29.37 in 2.0 mi NNW 6.9 mph - N/A Snow Light Snow
6:34 AM 33.8 °F 28.6 °F 28.4 °F 81% 29.38 in 1.8 mi NW 5.8 mph - N/A Snow Light Snow
6:54 AM 33.8 °F 27.7 °F 28.4 °F 81% 29.39 in 1.8 mi NW 6.9 mph - N/A Snow Light Snow
7:14 AM 33.8 °F 28.6 °F 28.4 °F 81% 29.39 in 1.5 mi NW 5.8 mph - N/A Snow Light Snow
7:34 AM 33.8 °F 27.0 °F 28.4 °F 81% 29.40 in 1.8 mi NW 8.1 mph - N/A Snow Light Snow
7:54 AM 33.8 °F 27.7 °F 28.4 °F 81% 29.40 in 1.8 mi NW 6.9 mph - N/A Snow Light Snow
8:14 AM 33.8 °F 27.0 °F 28.4 °F 81% 29.40 in 1.2 mi NNW 8.1 mph - N/A Snow Light Snow
8:34 AM 33.8 °F 27.0 °F 28.4 °F 81% 29.40 in 1.2 mi NNW 8.1 mph - 0.01 in Snow Light Snow
8:54 AM 33.8 °F 27.0 °F 28.4 °F 81% 29.41 in 1.8 mi NNW 8.1 mph - 0.01 in Snow Light Snow
9:15 AM 33.8 °F 27.7 °F 28.4 °F 81% 29.42 in 2.0 mi NNW 6.9 mph - N/A Snow Light Snow
9:34 AM 33.8 °F 25.3 °F 28.4 °F 81% 29.43 in 1.2 mi NNW 11.5 mph - N/A Snow Light Snow
9:54 AM 33.8 °F 26.4 °F 28.4 °F 81% 29.43 in 1.0 mi NW 9.2 mph - N/A Snow Light Snow
10:14 AM 32.0 °F 24.2 °F 28.4 °F 87% 29.44 in 1.2 mi NNW 9.2 mph - N/A Snow Light Snow
10:34 AM 32.0 °F 23.6 °F 28.4 °F 87% 29.45 in 1.8 mi NNW 10.4 mph - N/A Snow Light Snow
10:54 AM 30.2 °F 20.8 °F 26.6 °F 86% 29.45 in 2.5 mi NNW 11.5 mph - N/A Snow Light Snow
11:15 AM 30.2 °F 21.9 °F 26.6 °F 86% 29.46 in 2.5 mi NNW 9.2 mph - N/A Snow Light Snow
11:34 AM 30.2 °F 21.3 °F 26.6 °F 86% 29.46 in 2.0 mi NNW 10.4 mph - N/A Snow Light Snow
11:54 AM 30.2 °F 21.3 °F 26.6 °F 86% 29.47 in 7.0 mi NNW 10.4 mph - 0.01 in Snow Light Snow
12:15 PM 30.2 °F 20.2 °F 26.6 °F 86% 29.47 in 10.0 mi NNW 12.7 mph - N/A   Overcast
12:34 PM 30.2 °F 20.2 °F 24.8 °F 80% 29.48 in 4.0 mi NNW 12.7 mph - N/A   Haze
12:54 PM 30.2 °F 20.2 °F 24.8 °F 80% 29.50 in 1.5 mi NNW 12.7 mph - N/A Snow Light Snow
1:15 PM 30.2 °F 19.8 °F 24.8 °F 80% 29.50 in 1.5 mi NW 13.8 mph - N/A Snow Light Snow
1:34 PM 30.2 °F 20.8 °F 24.8 °F 80% 29.51 in 1.8 mi NW 11.5 mph - N/A Snow Light Snow
1:54 PM 28.4 °F 16.6 °F 24.8 °F 86% 29.52 in 5.0 mi NW 16.1 mph - N/A Snow Light Snow
2:15 PM 28.4 °F 18.0 °F 24.8 °F 86% 29.54 in 10.0 mi NNW 12.7 mph - N/A Snow Light Snow
2:34 PM 28.4 °F 18.5 °F 24.8 °F 86% 29.55 in 10.0 mi NW 11.5 mph - N/A   Overcast
2:54 PM 28.4 °F 17.5 °F 24.8 °F 86% 29.56 in 10.0 mi NNW 13.8 mph - N/A   Overcast
3:15 PM 28.4 °F 18.0 °F 24.8 °F 86% 29.57 in 10.0 mi NW 12.7 mph - N/A Snow Light Snow
3:34 PM 28.4 °F 17.5 °F 23.0 °F 80% 29.58 in 10.0 mi NW 13.8 mph - N/A Snow Light Snow
3:54 PM 28.4 °F 17.5 °F 23.0 °F 80% 29.60 in 7.0 mi NW 13.8 mph - 0.01 in Snow Light Snow
4:14 PM 26.6 °F 15.2 °F 23.0 °F 86% 29.61 in 10.0 mi NW 13.8 mph - N/A Snow Light Snow
4:34 PM 26.6 °F 14.3 °F 23.0 °F 86% 29.62 in 7.0 mi NNW 16.1 mph - N/A Snow Light Snow
4:54 PM 26.6 °F 16.2 °F 21.2 °F 80% 29.63 in 4.0 mi NW 11.5 mph - N/A Snow Light Snow
5:14 PM 26.6 °F 15.7 °F 21.2 °F 80% 29.65 in 3.0 mi NW 12.7 mph - N/A Snow Light Snow
5:34 PM 26.6 °F 14.7 °F 21.2 °F 80% 29.66 in 5.0 mi NW 15.0 mph - N/A Snow Light Snow
5:54 PM 26.6 °F 16.2 °F 21.2 °F 80% 29.67 in 4.0 mi NW 11.5 mph - N/A Snow Light Snow
6:14 PM 26.6 °F 14.7 °F 21.2 °F 80% 29.67 in 7.0 mi NNW 15.0 mph - N/A Snow Light Snow
6:34 PM 26.6 °F 15.2 °F 21.2 °F 80% 29.68 in 5.0 mi NNW 13.8 mph - N/A Snow Light Snow
6:54 PM 24.8 °F 11.9 °F 21.2 °F 86% 29.70 in 10.0 mi NNW 16.1 mph - N/A Snow Light Snow
7:14 PM 24.8 °F 12.9 °F 19.4 °F 80% 29.71 in 10.0 mi NNW 13.8 mph - N/A Snow Light Snow
7:34 PM 24.8 °F 12.9 °F 19.4 °F 80% 29.72 in 10.0 mi NNW 13.8 mph - N/A   Overcast
7:54 PM 24.8 °F 13.4 °F 19.4 °F 80% 29.73 in 10.0 mi NNW 12.7 mph - 0.01 in   Overcast
8:14 PM 24.8 °F 12.9 °F 19.4 °F 80% 29.74 in 10.0 mi NNW 13.8 mph - N/A   Overcast
8:34 PM 24.8 °F 13.4 °F 19.4 °F 80% 29.75 in 10.0 mi NW 12.7 mph 17.3 mph N/A   Overcast
8:54 PM 24.8 °F 14.0 °F 19.4 °F 80% 29.77 in 10.0 mi NW 11.5 mph - N/A   Overcast
9:14 PM 24.8 °F 14.6 °F 19.4 °F 80% 29.78 in 10.0 mi NW 10.4 mph - N/A   Overcast
9:34 PM 24.8 °F 13.4 °F 19.4 °F 80% 29.79 in 10.0 mi NW 12.7 mph - N/A   Overcast
9:54 PM 24.8 °F 13.4 °F 19.4 °F 80% 29.80 in 5.0 mi NW 12.7 mph - 0.01 in Snow Light Snow
10:14 PM 24.8 °F 14.6 °F 19.4 °F 80% 29.80 in 7.0 mi NW 10.4 mph - N/A Snow Light Snow
10:34 PM 23.0 °F 12.4 °F 19.4 °F 86% 29.81 in 10.0 mi NW 10.4 mph - N/A Snow Light Snow
10:54 PM 23.0 °F 11.1 °F 17.6 °F 80% 29.81 in 10.0 mi NW 12.7 mph - N/A Snow Light Snow
11:14 PM 23.0 °F 11.7 °F 17.6 °F 80% 29.82 in 10.0 mi NW 11.5 mph - N/A   Overcast
11:34 PM 23.0 °F 11.7 °F 17.6 °F 80% 29.82 in 10.0 mi NW 11.5 mph - N/A   Overcast
11:54 PM 21.2 °F 10.1 °F 17.6 °F 86% 29.83 in 10.0 mi NW 10.4 mph - 0.02 in   Overcast